Location: Artiguedieu
(43.5000°N, 0.5454°E)
Time: 12:00:08
(UTC+00:00)

YAOGAN 6 - Pass Details

Date: 06 December 2020
Orbit: 466 x 502 km, 97.0° (Epoch: 27 January)

Event Time Altitude Azimuth Distance (km) Brightness Sun altitude
Rises 05:39:23 0° 16° (NNE) 2,514 6.2 -17.0°
Reaches altitude 10° 05:41:29 10° 22° (NNE) 1,631 5.3 -16.6°
Maximum altitude 05:44:54 51° 99° (E) 594 3.4 -16.0°
Drops below altitude 10° 05:48:17 10° 177° (S) 1,619 5.5 -15.4°
Sets 05:50:22 0° 182° (S) 2,492 6.4 -15.1°
